Hourly Data Report for October 19, 2012

All times are specified in Local Standard Time (LST). Add 1 hour to adjust for Daylight Saving Time where and when it is observed.

KITCHENER/WATERLOO
ONTARIO

43°27'39.000" N
80°22'43.000" W
321.60 m
6144239
71368
YKF

Download Data

Hourly Data (October 2012)
Hourly Data Report for October 19, 2012
Temp Definition
°C
Dew Point Temp Definition
°C
Rel Hum Definition
%
Wind Dir Definition
10's deg

Wind Spd Definition
km/h
Visibility Definition
km
Stn Press Definition
kPa
Hmdx Definition


Wind Chill Definition


Weather Definition


TIME
00:00 Legend Double Dagger 6.8 6.4 97 9 15 16.1 97.04     LegendNANA
01:00 Legend Double Dagger 7.3 7.0 98 5 8 16.1 97.05     LegendNANA
02:00 Legend Double Dagger 4.3 4.0 98 8 11 0.8 97.02     LegendNANA
03:00 Legend Double Dagger 6.7 6.6 99 9 17 0.8 97.00     LegendNANA
04:00 Legend Double Dagger 7.1 7.0 99 11 15 0.6 96.99     LegendNANA
05:00 Legend Double Dagger 7.1 7.0 99 10 13 1.2 96.99     LegendNANA
06:00 Legend Double Dagger 7.0 6.9 99 9 21 1.2 96.97     LegendNANA
07:00 Legend Double Dagger 7.1 7.0 99 8 18 1.6 96.89     LegendNANA
08:00 Legend Double Dagger 7.4 7.3 99 9 13 1.6 96.93     LegendNANA
09:00 Legend Double Dagger 8.0 7.9 99 8 15 4.8 96.95     LegendNANA
10:00 Legend Double Dagger 8.4 7.8 96 9 21 4.8 96.91     LegendNANA
11:00 Legend Double Dagger 10.9 8.5 85 12 15 16.1 96.85     LegendNANA
12:00 Legend Double Dagger 12.1 7.7 74 10 17 16.1 96.75     LegendNANA
13:00 Legend Double Dagger 13.7 7.7 67 10 17 16.1 96.68     LegendNANA
14:00 Legend Double Dagger 14.0 5.7 57 13 17 16.1 96.61     LegendNANA
15:00 Legend Double Dagger 13.2 6.6 64 11 15 16.1 96.58     LegendNANA
16:00 Legend Double Dagger 12.5 7.0 69 10 17 16.1 96.58     LegendNANA
17:00 Legend Double Dagger 11.5 6.8 73 13 9 16.1 96.63     LegendNANA
18:00 Legend Double Dagger 10.0 6.5 79 9 11 16.1 96.63     LegendNANA
19:00 Legend Double Dagger 8.7 7.6 93 13 5 9.7 96.66     LegendNANA
20:00 Legend Double Dagger 8.7 7.5 92 9 11 8.1 96.64     LegendNANA
21:00 Legend Double Dagger 8.8 7.9 94 11 11 9.7 96.62     LegendNANA
22:00 Legend Double Dagger 8.8 8.1 95 9 13 16.1 96.55     LegendNANA
23:00 Legend Double Dagger 8.5 7.9 96 23 8 16.1 96.51     LegendNANA

Notes on Data Quality.

Legend

  • E = Estimated
  • M = Missing
  • NA = Not Available
  • ‡ = Partner data that is not subject to review by the National Climate Archives
Date modified: